Location: Gorze? G�rny
(49.8500°N, 19.5000°E)
Time: 05:24:53
(UTC+00:00)

Cosmos 1378 - Pass Details

Date: 13 May 2021
Orbit: 490 x 499 km, 82.5° (Epoch: 20 June)

Event Time Altitude Azimuth Distance (km) Brightness Sun altitude
Exits shadow 22:52:02 55° 270° (W) 601 3.4 -21.5°
Maximum altitude 22:52:12 56° 283° (WNW) 597 3.4 -21.5°
Drops below altitude 10° 22:55:52 10° 2° (N) 1,708 7.0 -21.4°
Sets 22:58:02 0° 7° (N) 2,597 8.3 -21.4°
